TimeMDT,TemperatureF,Dew PointF,Humidity,Sea Level PressureIn,VisibilityMPH,Wind Direction,Wind SpeedMPH,Gust SpeedMPH,PrecipitationIn,Events,Conditions,WindDirDegrees,DateUTC
12:15 AM,43.3,20.5,40,30.11,10.0,Calm,Calm,-,N/A,,Clear,0,2012-10-09 06:15:00
12:35 AM,43.0,19.2,39,30.11,10.0,Calm,Calm,-,N/A,,Clear,0,2012-10-09 06:35:00
12:55 AM,38.7,19.8,47,30.11,10.0,Calm,Calm,-,N/A,,Clear,0,2012-10-09 06:55:00
1:15 AM,40.5,20.3,45,30.11,10.0,Calm,Calm,-,N/A,,Clear,0,2012-10-09 07:15:00
1:55 AM,39.7,19.0,43,30.12,10.0,Calm,Calm,-,N/A,,Clear,0,2012-10-09 07:55:00
2:15 AM,39.9,19.6,44,30.12,10.0,Calm,Calm,-,N/A,,Clear,0,2012-10-09 08:15:00
2:35 AM,39.6,19.2,44,30.12,10.0,Calm,Calm,-,N/A,,Clear,0,2012-10-09 08:35:00
2:55 AM,37.6,19.9,49,30.11,10.0,Calm,Calm,-,N/A,,Clear,0,2012-10-09 08:55:00
3:15 AM,37.2,19.4,49,30.11,10.0,Calm,Calm,-,N/A,,Clear,0,2012-10-09 09:15:00
3:35 AM,42.1,20.1,42,30.11,10.0,NW,4.6,-,N/A,,Clear,310,2012-10-09 09:35:00
3:55 AM,38.8,19.9,47,30.11,10.0,WNW,3.5,-,N/A,,Clear,300,2012-10-09 09:55:00
4:15 AM,41.0,20.8,45,30.11,10.0,Calm,Calm,-,N/A,,Clear,0,2012-10-09 10:15:00
4:35 AM,44.1,19.9,38,30.11,10.0,NW,6.9,-,N/A,,Clear,320,2012-10-09 10:35:00
4:55 AM,34.9,19.6,54,30.11,10.0,North,5.8,-,N/A,,Clear,350,2012-10-09 10:55:00
5:15 AM,36.3,20.7,53,30.11,10.0,NNW,4.6,-,N/A,,Clear,330,2012-10-09 11:15:00
5:35 AM,40.5,21.0,46,30.12,10.0,Calm,Calm,-,N/A,,Clear,0,2012-10-09 11:35:00
5:55 AM,44.2,19.9,38,30.12,10.0,West,9.2,-,N/A,,Clear,260,2012-10-09 11:55:00
6:15 AM,44.1,20.5,39,30.13,10.0,NW,3.5,-,N/A,,Clear,320,2012-10-09 12:15:00
6:35 AM,44.2,21.9,41,30.13,10.0,West,10.4,-,N/A,,Clear,270,2012-10-09 12:35:00
6:55 AM,46.6,23.0,39,30.13,10.0,West,12.7,-,N/A,,Clear,270,2012-10-09 12:55:00
7:15 AM,49.3,23.9,37,30.13,10.0,West,12.7,-,N/A,,Clear,270,2012-10-09 13:15:00
7:35 AM,49.1,24.8,39,30.14,10.0,West,12.7,-,N/A,,Clear,270,2012-10-09 13:35:00
7:55 AM,52.7,25.3,35,30.14,10.0,West,10.4,-,N/A,,Clear,270,2012-10-09 13:55:00
8:15 AM,55.0,27.0,34,30.15,10.0,West,15.0,18.4,N/A,,Clear,270,2012-10-09 14:15:00
8:35 AM,58.6,29.3,33,30.16,10.0,West,15.0,-,N/A,,Clear,270,2012-10-09 14:35:00
8:55 AM,61.3,30.4,31,30.16,10.0,West,13.8,-,N/A,,Clear,270,2012-10-09 14:55:00
9:15 AM,63.1,30.9,30,30.17,10.0,West,12.7,-,N/A,,Clear,280,2012-10-09 15:15:00
9:35 AM,65.3,31.1,28,30.17,-9999.0,WNW,11.5,-,N/A,,Unknown,290,2012-10-09 15:35:00
9:55 AM,66.7,30.9,26,30.17,10.0,NW,5.8,-,N/A,,Clear,310,2012-10-09 15:55:00
10:15 AM,67.1,30.9,26,30.17,10.0,NNW,11.5,-,N/A,,Clear,340,2012-10-09 16:15:00
10:35 AM,68.2,31.3,25,30.17,10.0,West,8.1,-,N/A,,Clear,280,2012-10-09 16:35:00
10:55 AM,69.1,30.9,24,30.17,10.0,West,9.2,-,N/A,,Clear,270,2012-10-09 16:55:00
11:15 AM,70.9,30.2,22,30.16,10.0,NW,10.4,-,N/A,,Clear,310,2012-10-09 17:15:00
11:35 AM,71.6,29.3,21,30.16,10.0,WNW,15.0,18.4,N/A,,Clear,300,2012-10-09 17:35:00
11:55 AM,72.0,29.3,21,30.16,10.0,NW,11.5,-,N/A,,Clear,310,2012-10-09 17:55:00
12:15 PM,72.9,29.7,20,30.16,10.0,WNW,12.7,16.1,N/A,,Clear,290,2012-10-09 18:15:00
12:35 PM,73.9,28.8,19,30.14,10.0,West,6.9,10.4,N/A,,Clear,280,2012-10-09 18:35:00
12:55 PM,74.7,28.0,18,30.14,10.0,WNW,11.5,23.0,N/A,,Clear,290,2012-10-09 18:55:00
1:15 PM,74.7,27.7,18,30.13,10.0,West,13.8,23.0,N/A,,Clear,260,2012-10-09 19:15:00
1:35 PM,75.2,27.3,17,30.13,10.0,WNW,12.7,19.6,N/A,,Clear,290,2012-10-09 19:35:00
2:15 PM,75.9,25.7,16,30.12,10.0,WSW,12.7,19.6,N/A,,Clear,250,2012-10-09 20:15:00
2:35 PM,76.1,25.3,15,30.12,10.0,West,13.8,23.0,N/A,,Clear,280,2012-10-09 20:35:00
2:55 PM,75.9,25.5,15,30.12,10.0,West,18.4,25.3,N/A,,Clear,280,2012-10-09 20:55:00
3:15 PM,75.4,25.7,16,30.12,10.0,West,17.3,23.0,N/A,,Clear,280,2012-10-09 21:15:00
3:35 PM,75.4,26.1,16,30.12,10.0,West,11.5,-,N/A,,Clear,280,2012-10-09 21:35:00
3:55 PM,75.6,26.4,16,30.11,10.0,West,13.8,18.4,N/A,,Clear,270,2012-10-09 21:55:00
4:15 PM,75.6,26.4,16,30.10,10.0,WNW,11.5,17.3,N/A,,Clear,300,2012-10-09 22:15:00
4:35 PM,75.6,26.4,16,30.11,10.0,West,16.1,24.2,N/A,,Clear,270,2012-10-09 22:35:00
4:55 PM,75.6,26.4,16,30.10,10.0,West,16.1,20.7,N/A,,Clear,280,2012-10-09 22:55:00
5:15 PM,74.7,25.7,16,30.11,10.0,West,16.1,20.7,N/A,,Clear,280,2012-10-09 23:15:00
5:35 PM,74.5,26.1,17,30.11,10.0,West,11.5,-,N/A,,Clear,260,2012-10-09 23:35:00
5:55 PM,73.4,27.0,18,30.11,10.0,West,8.1,-,N/A,,Clear,270,2012-10-09 23:55:00
6:15 PM,71.6,26.6,19,30.11,10.0,West,9.2,-,N/A,,Clear,270,2012-10-10 00:15:00
6:35 PM,67.8,27.5,22,30.12,10.0,West,5.8,-,N/A,,Clear,260,2012-10-10 00:35:00
6:55 PM,65.8,27.1,23,30.12,10.0,West,4.6,-,N/A,,Clear,260,2012-10-10 00:55:00
7:15 PM,63.9,27.3,25,30.13,10.0,West,4.6,-,N/A,,Clear,270,2012-10-10 01:15:00
7:35 PM,61.0,25.7,26,30.14,10.0,NW,6.9,-,N/A,,Clear,320,2012-10-10 01:35:00
7:55 PM,56.5,25.7,31,30.14,10.0,NNW,4.6,-,N/A,,Clear,340,2012-10-10 01:55:00
8:15 PM,55.4,25.3,31,30.16,10.0,WNW,3.5,-,N/A,,Clear,300,2012-10-10 02:15:00
8:35 PM,52.5,24.6,34,30.16,10.0,ENE,3.5,-,N/A,,Clear,60,2012-10-10 02:35:00
8:55 PM,54.5,24.8,32,30.17,10.0,Calm,Calm,-,N/A,,Clear,0,2012-10-10 02:55:00
9:15 PM,53.1,24.6,33,30.17,10.0,NE,4.6,-,N/A,,Clear,40,2012-10-10 03:15:00
9:35 PM,51.6,23.9,34,30.17,10.0,NNE,3.5,-,N/A,,Clear,30,2012-10-10 03:35:00
9:55 PM,50.0,23.5,36,30.19,10.0,South,6.9,-,N/A,,Clear,180,2012-10-10 03:55:00
10:15 PM,50.7,24.1,35,30.19,10.0,Calm,Calm,-,N/A,,Clear,0,2012-10-10 04:15:00
10:35 PM,46.9,24.1,41,30.19,10.0,ENE,5.8,-,N/A,,Clear,70,2012-10-10 04:35:00
10:55 PM,46.2,24.4,42,30.19,10.0,Calm,Calm,-,N/A,,Clear,0,2012-10-10 04:55:00
11:15 PM,46.8,25.3,43,30.19,10.0,NNE,3.5,-,N/A,,Clear,30,2012-10-10 05:15:00
11:35 PM,45.0,24.6,45,30.20,10.0,Calm,Calm,-,N/A,,Clear,0,2012-10-10 05:35:00
11:55 PM,44.6,24.6,45,30.20,10.0,WNW,4.6,-,N/A,,Clear,300,2012-10-10 05:55:00